This is the latest recevied weather packets stored in our database for station/object OM1ATS-6. If no packets are shown the sender has not sent any weather packets the latest 10 day(s).
| Time | Temp. | Humidity | Pressure | Rain* | Wind** | Luminosity | Snow |
|---|---|---|---|---|---|---|---|
| 1777640530 | 20.56° C | 36% | 1028.7 hPa | - | - | - | - |
| 1777640229 | 21.11° C | 35% | 1029.6 hPa | - | - | - | - |
| 1777639929 | 21.11° C | 35% | 1029.6 hPa | - | - | - | - |
| 1777639630 | 21.11° C | 36% | 1029.6 hPa | - | - | - | - |
| 1777639330 | 21.67° C | 36% | 1029.6 hPa | - | - | - | - |
| 1777639029 | 21.67° C | 36% | 1029.1 hPa | - | - | - | - |
| 1777638730 | 21.11° C | 37% | 1029.1 hPa | - | - | - | - |
| 1777638430 | 20° C | 38% | 1029.1 hPa | - | - | - | - |
| 1777638130 | 19.44° C | 38% | 1029.1 hPa | - | - | - | - |
| 1777637829 | 19.44° C | 38% | 1029.2 hPa | - | - | - | - |
| 1777637530 | 18.89° C | 38% | 1029.2 hPa | - | - | - | - |
| 1777637229 | 18.89° C | 38% | 1029.2 hPa | - | - | - | - |
| 1777636930 | 19.44° C | 37% | 1029.2 hPa | - | - | - | - |
| 1777636630 | 19.44° C | 37% | 1030 hPa | - | - | - | - |
| 1777636329 | 19.44° C | 37% | 1030 hPa | - | - | - | - |
| 1777636029 | 20° C | 37% | 1030 hPa | - | - | - | - |
| 1777635730 | 19.44° C | 37% | 1030 hPa | - | - | - | - |
| 1777635429 | 19.44° C | 38% | 1029.6 hPa | - | - | - | - |
| 1777635130 | 18.33° C | 38% | 1029.6 hPa | - | - | - | - |
| 1777634831 | 18.33° C | 38% | 1029.6 hPa | - | - | - | - |
| 1777634530 | 18.33° C | 37% | 1029.6 hPa | - | - | - | - |
| 1777634230 | 18.33° C | 37% | 1029.2 hPa | - | - | - | - |
| 1777633930 | 19.44° C | 38% | 1029.2 hPa | - | - | - | - |
| 1777633630 | 19.44° C | 38% | 1029.2 hPa | - | - | - | - |
| 1777633330 | 18.89° C | 38% | 1029.2 hPa | - | - | - | - |
* Rain since midnight (hover to see other rain measurements)
** Current wind speed in m/s (hover to see current wind gust speed)